When you browse on this site, cookies collect data to enhance your experience and personalize the content and advertising you see.
Visit our Privacy Policy to learn more. By continuing to use the site, you agree to this use of cookies and data.
  • In Hungary
  • List of Countries
  • For 7 days
  • Water Temperature
  • Weather Map
  • News
  • Weather Widgets
  • user-avatar
    Login

    Hourly Weather Kyzyl-Barzhau

    Today, 24 February, Monday

    Time Temperature Precipitation Wind Pressure Humidity
    00:00 -7°C° 0 mm 3 mps 747 mmHg 90%
    01:00 -8°C° 0 mm 4 mps 746 mmHg 88%
    02:00 -8°C° 0 mm 4 mps 746 mmHg 88%
    03:00 -8°C° 0 mm 5 mps 745 mmHg 88%
    04:00 -8°C° 0 mm 6 mps 744 mmHg 87%
    05:00 -8°C° 0.3 mm 6 mps 743 mmHg 89%
    06:00 -8°C° 0.3 mm 6 mps 742 mmHg 91%
    07:00 -8°C° 0.3 mm 7 mps 742 mmHg 93%
    08:00 -8°C° 0.4 mm 7 mps 741 mmHg 93%
    09:00 -7°C° 0.4 mm 7 mps 741 mmHg 94%
    10:00 -6°C° 0.4 mm 7 mps 740 mmHg 94%
    11:00 -6°C° 0.4 mm 7 mps 739 mmHg 95%
    12:00 -4°C° 0.4 mm 7 mps 739 mmHg 96%
    13:00 -4°C° 0.4 mm 7 mps 738 mmHg 96%
    14:00 -4°C° 0.6 mm 7 mps 738 mmHg 95%
    15:00 -3°C° 0.6 mm 7 mps 738 mmHg 95%
    16:00 -3°C° 0.6 mm 7 mps 738 mmHg 94%
    17:00 -3°C° 0.4 mm 7 mps 738 mmHg 95%
    18:00 -3°C° 0.4 mm 6 mps 738 mmHg 95%
    19:00 -3°C° 0.4 mm 6 mps 738 mmHg 96%
    20:00 -4°C° 0.1 mm 5 mps 739 mmHg 95%
    21:00 -4°C° 0.1 mm 5 mps 739 mmHg 94%
    22:00 -3°C° 0.1 mm 4 mps 739 mmHg 93%
    23:00 -4°C° 0 mm 4 mps 740 mmHg 94%

    Tomorrow, 25 February, Tuesday

    Time Temperature Precipitation Wind Pressure Humidity
    00:00 -4°C° 0 mm 3 mps 740 mmHg 94%
    01:00 -5°C° 0 mm 3 mps 740 mmHg 95%
    02:00 -5°C° 0 mm 3 mps 741 mmHg 95%
    03:00 -4°C° 0 mm 2 mps 741 mmHg 95%
    04:00 -3°C° 0 mm 2 mps 741 mmHg 96%
    05:00 -3°C° 0 mm 2 mps 741 mmHg 96%
    06:00 -3°C° 0 mm 2 mps 741 mmHg 95%
    07:00 -4°C° 0 mm 3 mps 741 mmHg 95%
    08:00 -2°C° 0 mm 3 mps 741 mmHg 96%
    09:00 -2°C° 0 mm 3 mps 741 mmHg 96%
    10:00 -2°C° 0 mm 4 mps 741 mmHg 96%
    11:00 -2°C° 0 mm 4 mps 741 mmHg 97%
    12:00 -1°C° 0 mm 3 mps 740 mmHg 98%
    13:00 -1°C° 0 mm 3 mps 740 mmHg 99%
    14:00 -1°C° 0 mm 3 mps 740 mmHg 99%
    15:00 -1°C° 0 mm 3 mps 739 mmHg 99%
    16:00 -1°C° 0 mm 3 mps 739 mmHg 98%
    17:00 -1°C° 0 mm 3 mps 738 mmHg 96%
    18:00 -1°C° 0 mm 3 mps 738 mmHg 94%
    19:00 -1°C° 0 mm 3 mps 737 mmHg 92%
    20:00 -1°C° 0 mm 3 mps 737 mmHg 91%
    21:00 0°C° 0 mm 3 mps 736 mmHg 89%
    22:00 0°C° 0 mm 3 mps 735 mmHg 88%
    23:00 0°C° 0.3 mm 3 mps 734 mmHg 92%

    Day after tomorrow, 26 February, Wednesday

    Time Temperature Precipitation Wind Pressure Humidity
    00:00 -2°C° 0.3 mm 4 mps 733 mmHg 95%
    01:00 -2°C° 0.3 mm 4 mps 732 mmHg 98%
    02:00 -1°C° 1 mm 4 mps 732 mmHg 98%
    03:00 -1°C° 1 mm 4 mps 731 mmHg 99%
    04:00 -1°C° 1 mm 4 mps 730 mmHg 99%
    05:00 0°C° 0.8 mm 3 mps 729 mmHg 99%
    06:00 0°C° 0.8 mm 3 mps 728 mmHg 99%
    07:00 +1°C° 0.8 mm 2 mps 728 mmHg 99%
    08:00 +1°C° 0.5 mm 2 mps 727 mmHg 99%
    09:00 +1°C° 0.5 mm 2 mps 727 mmHg 99%
    10:00 0°C° 0.5 mm 3 mps 727 mmHg 99%
    11:00 0°C° 0.1 mm 3 mps 727 mmHg 99%
    12:00 0°C° 0.1 mm 3 mps 727 mmHg 99%
    13:00 0°C° 0.1 mm 3 mps 728 mmHg 99%
    14:00 -1°C° 0.3 mm 4 mps 728 mmHg 99%
    15:00 -1°C° 0.3 mm 5 mps 729 mmHg 99%
    16:00 -2°C° 0.3 mm 5 mps 729 mmHg 98%
    17:00 -3°C° 0.3 mm 6 mps 730 mmHg 97%
    18:00 -3°C° 0.3 mm 7 mps 731 mmHg 95%
    19:00 -4°C° 0.3 mm 7 mps 732 mmHg 94%
    20:00 -4°C° 0.1 mm 7 mps 733 mmHg 93%
    21:00 -6°C° 0.1 mm 7 mps 734 mmHg 92%
    22:00 -5°C° 0.1 mm 6 mps 735 mmHg 91%
    23:00 -7°C° 0 mm 5 mps 736 mmHg 92%

    27 February, Thursday

    Time Temperature Precipitation Wind Pressure Humidity
    00:00 -8°C° 0 mm 5 mps 737 mmHg 92%
    01:00 -10°C° 0 mm 4 mps 738 mmHg 93%
    02:00 -11°C° 0 mm 4 mps 738 mmHg 94%
    03:00 -12°C° 0 mm 3 mps 739 mmHg 94%
    04:00 -13°C° 0 mm 3 mps 740 mmHg 95%
    05:00 -13°C° 0 mm 3 mps 740 mmHg 94%
    06:00 -13°C° 0 mm 3 mps 740 mmHg 93%
    07:00 -14°C° 0 mm 4 mps 741 mmHg 93%
    08:00 -11°C° 0.1 mm 4 mps 741 mmHg 93%
    09:00 -11°C° 0.1 mm 5 mps 741 mmHg 94%
    10:00 -9°C° 0.1 mm 6 mps 741 mmHg 95%
    11:00 -6°C° 0.5 mm 6 mps 741 mmHg 96%
    12:00 -5°C° 0.5 mm 6 mps 741 mmHg 98%
    13:00 -3°C° 0.5 mm 6 mps 741 mmHg 99%
    14:00 -3°C° 0.9 mm 6 mps 742 mmHg 99%
    15:00 -2°C° 0.9 mm 6 mps 742 mmHg 99%
    16:00 -2°C° 0.9 mm 6 mps 742 mmHg 99%
    17:00 -2°C° 0.2 mm 6 mps 742 mmHg 95%
    18:00 -2°C° 0.2 mm 6 mps 743 mmHg 92%
    19:00 -2°C° 0.2 mm 6 mps 743 mmHg 88%
    20:00 -2°C° 0 mm 6 mps 743 mmHg 86%
    21:00 -2°C° 0 mm 6 mps 744 mmHg 85%
    22:00 -3°C° 0 mm 6 mps 744 mmHg 83%
    23:00 -3°C° 0 mm 6 mps 744 mmHg 83%

    28 February, Friday

    Time Temperature Precipitation Wind Pressure Humidity
    00:00 -3°C° 0 mm 6 mps 744 mmHg 84%
    01:00 -3°C° 0 mm 6 mps 744 mmHg 84%
    02:00 -3°C° 0.6 mm 6 mps 744 mmHg 86%
    03:00 -3°C° 0.6 mm 7 mps 744 mmHg 88%
    04:00 -3°C° 0.6 mm 7 mps 743 mmHg 90%
    05:00 -3°C° 0 mm 7 mps 743 mmHg 87%
    06:00 -3°C° 0 mm 7 mps 743 mmHg 84%
    07:00 -3°C° 0 mm 7 mps 744 mmHg 81%
    08:00 -3°C° 0 mm 7 mps 744 mmHg 82%
    09:00 -3°C° 0 mm 7 mps 744 mmHg 82%
    10:00 -3°C° 0 mm 7 mps 744 mmHg 82%
    11:00 -3°C° 0 mm 7 mps 745 mmHg 84%
    12:00 -2°C° 0 mm 7 mps 745 mmHg 86%
    13:00 -2°C° 0 mm 7 mps 745 mmHg 87%
    14:00 -2°C° 0 mm 6 mps 745 mmHg 86%
    15:00 -1°C° 0 mm 5 mps 745 mmHg 85%
    16:00 -1°C° 0 mm 5 mps 746 mmHg 84%
    17:00 -2°C° 0 mm 5 mps 746 mmHg 83%
    18:00 -2°C° 0 mm 5 mps 746 mmHg 82%
    19:00 -4°C° 0 mm 5 mps 746 mmHg 81%
    20:00 -3°C° 0 mm 4 mps 746 mmHg 81%
    21:00 -3°C° 0 mm 4 mps 746 mmHg 80%
    22:00 -4°C° 0 mm 4 mps 746 mmHg 80%
    23:00 -2°C° 0 mm 3 mps 746 mmHg 79%

    29 February, Saturday

    Time Temperature Precipitation Wind Pressure Humidity
    00:00 -2°C° 0 mm 3 mps 745 mmHg 78%
    01:00 -2°C° 0 mm 3 mps 745 mmHg 77%
    02:00 -4°C° 0 mm 3 mps 745 mmHg 77%
    03:00 -4°C° 0 mm 3 mps 745 mmHg 76%
    04:00 -4°C° 0 mm 3 mps 745 mmHg 75%
    05:00 -4°C° 0 mm 3 mps 744 mmHg 74%
    06:00 -4°C° 0 mm 3 mps 744 mmHg 73%
    07:00 -4°C° 0 mm 4 mps 744 mmHg 73%
    08:00 -3°C° 0 mm 4 mps 743 mmHg 74%
    09:00 -3°C° 0 mm 4 mps 743 mmHg 75%
    10:00 -2°C° 0 mm 4 mps 743 mmHg 75%
    11:00 -2°C° 0 mm 4 mps 743 mmHg 78%
    12:00 -2°C° 0 mm 4 mps 743 mmHg 81%
    13:00 -1°C° 0 mm 5 mps 743 mmHg 84%
    14:00 -1°C° 0 mm 5 mps 742 mmHg 85%
    15:00 -1°C° 0 mm 4 mps 742 mmHg 86%
    16:00 -1°C° 0 mm 4 mps 742 mmHg 87%
    17:00 -2°C° 0 mm 4 mps 742 mmHg 88%
    18:00 -2°C° 0 mm 4 mps 742 mmHg 89%
    19:00 -2°C° 0 mm 3 mps 742 mmHg 89%
    20:00 -2°C° 0.1 mm 3 mps 742 mmHg 91%
    21:00 -4°C° 0.1 mm 3 mps 742 mmHg 92%
    22:00 -4°C° 0.1 mm 3 mps 742 mmHg 93%
    23:00 -4°C° 0.1 mm 3 mps 742 mmHg 92%
    Show more